Weather History for KMBG - November, 2013

Change the Weather History Date:

Monday, November 11, 2013

  Actual Average Record
Temperature  
Mean Temperature 16 °F 35 °F  
Max Temperature 24 °F 46 °F 71 °F (2005)
Min Temperature 7 °F 24 °F -6 °F (1911)
Degree Days  
Heating Degree Days 49 30  
Month to date heating degree days 344 303  
Since 1 July heating degree days 1106 1077  
Cooling Degree Days 0 0  
Month to date cooling degree days 0 0  
Year to date cooling degree days 700 644  
Moisture  
Dew Point 3 °F    
Average Humidity 52    
Maximum Humidity 70    
Minimum Humidity 34    
Precipitation  
Precipitation T in 0.02 in 0.10 in (2000)
Month to date precipitation 0.04 0.32  
Year to date precipitation 22.92 17.27  
Snow  
Snow T in - - ()
Month to date snowfall T  
Since 1 July snowfall 1.0  
Snow Depth T in    
Sea Level Pressure  
Sea Level Pressure 30.65 in    
Wind  
Wind Speed 9 mph (NNE)    
Max Wind Speed 21 mph    
Max Gust Speed 26 mph    
Visibility 9 miles    
Events Snow    
T = Trace of Precipitation, MM = Missing Value Source: NWS Daily Summary

Daily Weather History Graph

Daily Weather History Graph

Search for Another Location

Airport or City:

Trip Planner

Search our weather history database for the weather conditions in past years. The results will help you decide how hot, cold, wet, or windy it might be!

Date:

Astronomy

Nov. 11, 2013 Rise Set
Actual Time 7:35 AM CST 5:15 PM CST
Civil Twilight 7:03 AM CST 5:46 PM CST
Nautical Twilight 6:28 AM CST 6:22 PM CST
Astronomical Twilight 5:53 AM CST 6:57 PM CST
Moon 2:12 PM CST (11/11) 1:04 AM CST (11/11)
Length of Visible Light 10h 43m
Length of Day
9h 39m
Waxing Gibbous, 66% of the Moon is Illuminated
Nov 11
Waxing Gibbous
Nov 17
Full
Nov 25
Last Quarter
Dec 2
New
Dec 9
First Quarter

Hourly Weather History & Observations

Time (CST) Temp. Windchill Dew Point Humidity Pressure Visibility Wind Dir Wind Speed Gust Speed Precip Events Conditions
12:52 AM 21.9 °F 7.8 °F 12.9 °F 68% 30.37 in 9.0 mi North 17.3 mph 24.2 mph 0.00 in   Overcast
1:52 AM 19.9 °F 6.2 °F 10.9 °F 68% 30.40 in 4.0 mi North 15.0 mph - 0.00 in Snow Light Snow
2:52 AM 19.9 °F 7.3 °F 7.0 °F 57% 30.43 in 6.0 mi North 12.7 mph 23.0 mph 0.00 in Snow Light Snow
3:52 AM 19.0 °F 6.8 °F 7.0 °F 59% 30.45 in 6.0 mi North 11.5 mph - 0.00 in Snow Light Snow
4:52 AM 19.0 °F 6.1 °F 3.9 °F 52% 30.48 in 10.0 mi NNE 12.7 mph - 0.00 in   Overcast
5:52 AM 19.0 °F 6.1 °F 3.9 °F 52% 30.52 in 10.0 mi North 12.7 mph - N/A   Overcast
6:52 AM 18.0 °F 4.8 °F 5.0 °F 57% 30.56 in 10.0 mi North 12.7 mph - N/A   Overcast
7:52 AM 16.0 °F 2.9 °F 3.9 °F 59% 30.61 in 10.0 mi North 11.5 mph - N/A   Mostly Cloudy
8:52 AM 16.0 °F 2.3 °F 3.9 °F 59% 30.64 in 10.0 mi North 12.7 mph - N/A   Overcast
9:52 AM 17.1 °F 3.6 °F 5.0 °F 59% 30.67 in 10.0 mi North 12.7 mph - N/A   Clear
10:52 AM 17.1 °F 4.3 °F 3.0 °F 54% 30.69 in 10.0 mi North 11.5 mph - N/A   Clear
11:52 AM 19.0 °F 6.8 °F 3.9 °F 52% 30.70 in 10.0 mi North 11.5 mph - N/A   Clear
12:52 PM 21.0 °F 9.3 °F -0.9 °F 38% 30.70 in 10.0 mi North 11.5 mph - N/A   Clear
1:52 PM 21.9 °F 12.5 °F -2.9 °F 34% 30.70 in 10.0 mi NW 8.1 mph - N/A   Clear
2:52 PM 23.0 °F 13.1 °F -2.0 °F 34% 30.70 in 10.0 mi North 9.2 mph - N/A   Clear
3:52 PM 23.0 °F 14.7 °F -2.0 °F 34% 30.72 in 10.0 mi North 6.9 mph - N/A   Clear
4:52 PM 21.0 °F 14.6 °F -0.9 °F 38% 30.73 in 10.0 mi NNE 4.6 mph - N/A   Clear
5:52 PM 15.1 °F 5.2 °F -0.9 °F 49% 30.75 in 10.0 mi NNE 6.9 mph - N/A   Clear
6:52 PM 12.0 °F 1.5 °F -0.0 °F 59% 30.77 in 10.0 mi NNE 6.9 mph - N/A   Clear
7:52 PM 14.0 °F 5.1 °F -0.9 °F 52% 30.79 in 10.0 mi ENE 5.8 mph - N/A   Clear
8:52 PM 12.0 °F - 1.0 °F 61% 30.80 in 10.0 mi Calm Calm - N/A   Clear
9:52 PM 12.0 °F 5.9 °F 1.9 °F 64% 30.81 in 10.0 mi SSE 3.5 mph - N/A   Clear
10:52 PM 12.0 °F - 5.0 °F 73% 30.80 in 10.0 mi Calm Calm - N/A   Clear
11:52 PM 12.0 °F 5.9 °F 6.1 °F 77% 30.80 in 10.0 mi SE 3.5 mph - N/A   Clear